Location: Monteux
(44.0348°N, 4.9972°E)
Time: 17:55:15
(UTC+00:00)

Meteor 2-6 Rocket - Pass Details

Date: 30 November 2020
Orbit: 806 x 914 km, 81.3° (Epoch: 23 January)

Event Time Altitude Azimuth Distance (km) Brightness Sun altitude
Rises 17:33:48 0° 171° (S) 3,420 7.4 -15.8°
Reaches altitude 10° 17:36:19 10° 165° (SSE) 2,471 6.6 -16.2°
Maximum altitude 17:41:37 46° 94° (E) 1,109 4.4 -17.2°
Enters shadow 17:45:55 15° 26° (NNE) 2,099 5.9 -17.9°
